Location: Ferchesar
(52.6477°N, 12.4298°E)
Time: 17:33:00
(UTC+01:00)

Explorer 7 - Pass Details

Date: 11 December 2021
Orbit: 483 x 674 km, 50.3° (Epoch: 23 January)

Event Time Altitude Azimuth Distance (km) Brightness Sun altitude
Rises 03:22:03 0° 219° (SW) 2,920 - -42.2°
Reaches altitude 10° 03:24:41 10° 207° (SSW) 1,983 - -41.9°
Maximum altitude 03:28:31 27° 150° (SSE) 1,155 - -41.3°
Drops below altitude 10° 03:32:10 10° 92° (E) 1,887 - -40.8°
Exits shadow 03:32:55 - 87° (E) 2,140 10.5 -40.7°
Sets 03:34:36 0° 80° (E) 2,750 11.3 -40.4°
